Location: Huberhof
(49.2050°N, 7.4980°E)
Time: 01:04:22
(UTC+00:00)

BREEZE-M R/B - Pass Details

Date: 29 October 2020
Orbit: 309 x 4522 km, 49.7° (Epoch: 26 November)

Event Time Altitude Azimuth Distance (km) Brightness Sun altitude
Rises 17:46:54 0° 280° (W) 2,456 7.8 -15.8°
Reaches altitude 10° 17:48:29 10° 280° (W) 1,778 6.7 -16.0°
Maximum altitude 17:52:18 88° 194° (SSW) 785 3.5 -16.7°
Enters shadow 17:56:32 24° 103° (ESE) 2,127 5.2 -17.4°
